Temp
18 18 18 18 18 18 18 17 16 16 16 17 18 19 19 18 19 18 18 18 17 17 17 17 16 16 16 16 16 17 16 16 16
17 18 18 18 18 18 17 17 17 17 17 18 18 19 19 18 19 18 18 17 17 17 16 17 16 16 16 16 16 16 16 16 16
17 17 17 17 17 18 17 17 17 17 17 18 18 19 19 19 20 19 18 16 16 16 16 15 15 15 15 15 15 15 15 15 15
16 17 17 17 17 17 17 17 17 17 17 18 18 19 19 19 18 18 17 16 16 15 15 15 15 14 14 14 14 14 14 14 14
16 17 17 17 17 17 17 17 17 17 18 18 18 19 19 19 18 18 16 16 16 15 14 14 14 14 13 13 13 13 13 13 13
18 17 17 17 17 17 17 17 18 18 18 18 18 19 19 19 18 17 17 16 15 14 14 14 13 13 13 13 13 13 12 12 12
18 18 17 17 17 17 17 17 17 18 18 18 18 19 19 19 18 17 16 15 15 14 13 13 13 13 13 12 12 12 12 12 12
19 18 17 17 17 17 17 17 17 18 17 18 18 18 19 19 18 17 16 15 14 14 13 13 13 13 12 12 12 12 12 11 11
19 18 18 17 17 17 17 18 18 18 19 18 18 18 18 18 18 17 17 15 14 14 13 13 12 12 12 12 11 11 11 11 11
19 19 19 18 18 18 18 18 18 18 18 18 19 18 18 18 18 17 16 15 14 14 13 13 12 12 12 11 11 11 11 11 10
20 20 20 19 19 19 19 19 19 19 18 18 18 18 18 18 18 17 16 15 14 13 13 13 13 12 12 11 11 10 10 10 10
20 20 20 20 20 20 20 20 19 19 18 18 18 18 18 18 17 16 15 14 13 13 13 13 13 12 12 11 11 10 10 10 10
20 20 20 20 20 19 19 19 19 19 19 18 18 18 17 17 17 17 15 15 14 13 13 12 12 12 12 12 11 10 10 10 10
20 20 20 20 20 19 19 19 19 19 18 18 18 17 17 17 17 16 16 14 14 14 13 12 12 12 12 12 11 10 10 10 10
20 20 20 19 20 20 19 19 19 18 18 18 17 17 17 16 16 16 16 15 14 14 13 13 12 12 11 11 11 10 10 9 10
20 20 19 19 19 19 19 19 18 18 18 17 17 16 16 16 16 16 15 15 14 14 13 13 12 11 11 11 10 10 9 9 9
20 19 19 19 19 19 19 18 18 18 17 17 15 11 14 15 15 15 15 15 14 14 13 12 12 11 11 11 10 10 10 10 9
19 19 19 18 18 18 18 18 17 16 17 17 15 11 11 12 14 14 14 14 14 13 13 12 12 11 11 11 10 10 10 9 8
19 19 18 18 18 18 18 18 17 16 15 16 16 17 16 11 10 13 14 14 13 13 12 12 12 11 11 10 10 9 9 9 7
18 18 17 17 17 17 17 17 17 16 15 14 15 14 14 15 11 9 10 12 13 13 12 12 11 11 10 10 9 9 8 6 6
Height
833 833 834 836 838 839 841 843 844 845 846 847 848 849 849 850 850 850 851 851 852 851 852 852 853 852 852 852 850 851 853 853 853
833 834 836 838 839 841 843 844 845 846 847 848 849 850 850 852 852 852 853 854 854 854 855 855 855 854 855 855 854 854 855 855 855
834 836 837 839 840 841 843 844 845 847 848 849 850 851 852 853 853 854 854 855 856 856 856 856 857 856 857 857 857 857 856 857 857
835 836 838 839 841 842 844 845 846 847 849 850 851 852 853 854 854 854 855 857 858 857 857 858 858 857 857 858 858 858 859 858 859
835 837 838 840 841 843 844 846 847 848 849 850 851 852 854 855 854 855 857 857 858 858 858 858 858 858 857 858 858 859 860 860 860
835 836 838 840 841 843 844 845 846 848 849 850 851 853 854 856 854 855 856 858 858 859 859 859 858 858 859 859 859 859 860 859 860
834 835 838 840 841 843 843 844 846 846 848 850 851 853 854 856 854 854 856 857 859 860 859 859 859 859 860 859 860 860 861 861 860
833 835 836 838 840 842 843 845 846 846 847 849 850 852 854 855 854 855 856 857 859 860 860 860 860 861 861 861 861 860 860 861 862
831 832 834 836 837 839 841 843 845 846 848 849 850 850 852 854 853 854 854 855 857 859 860 860 860 861 861 862 862 862 861 861 863
829 830 831 833 835 837 838 841 843 845 847 848 849 849 850 851 850 851 853 854 855 857 858 859 859 860 860 861 862 862 861 861 863
827 829 830 832 834 834 836 838 840 842 844 846 847 848 849 849 849 848 850 851 853 855 857 858 858 859 860 860 861 862 860 860 861
825 827 829 830 832 833 834 836 837 839 840 842 844 846 846 847 847 846 846 848 850 852 854 855 856 858 858 858 858 859 859 859 859
821 823 825 827 828 830 832 833 834 836 837 839 841 842 843 844 845 845 845 844 846 848 851 852 853 854 856 856 857 857 856 857 857
818 819 821 823 825 826 827 829 831 833 834 836 838 840 840 841 842 843 842 842 842 844 846 848 849 850 852 853 854 855 855 855 855
812 815 817 818 820 821 822 824 826 827 830 833 835 835 837 837 838 838 839 840 840 840 842 843 845 846 847 850 851 852 852 853 853
807 807 810 813 814 815 816 818 821 822 825 829 831 832 832 833 834 834 835 835 836 837 838 839 840 843 845 846 847 848 850 850 851
803 803 804 806 809 811 811 812 813 816 819 821 826 831 831 828 827 829 829 830 831 833 833 835 837 839 842 843 843 844 846 846 849
797 799 800 802 804 805 806 807 806 807 811 813 817 824 822 820 820 820 822 824 825 826 829 830 832 834 837 839 840 840 842 844 845
792 794 795 798 798 799 800 802 801 805 803 807 807 807 808 812 818 815 816 818 819 820 823 826 828 830 832 834 837 837 838 839 841
786 787 789 790 791 792 794 795 795 796 798 798 799 802 805 806 806 812 810 812 812 815 819 822 824 827 828 829 831 833 835 837 838
Wind_Speed
12 13 14 15 16 13 11 10 11 11 11 10 11 12 10 13 12 13 11 13 19 19 15 13 18 22 18 18 17 8 8 7 7
12 14 15 14 13 11 10 10 10 10 9 9 9 11 10 12 10 12 13 15 16 17 16 12 14 15 15 16 20 19 14 17 14
10 11 11 10 9 9 9 9 10 9 7 7 9 10 7 11 6 5 9 11 12 13 11 10 11 12 13 14 13 12 14 15 16
10 10 8 8 8 8 8 9 8 7 6 5 7 8 7 8 8 9 9 11 10 11 11 11 11 12 13 13 14 13 13 14 13
9 9 8 8 8 8 8 8 7 5 5 5 6 9 8 7 5 5 8 9 9 9 10 10 10 11 12 12 12 13 13 13 13
6 8 7 9 8 8 8 6 6 4 4 6 9 10 5 4 8 6 5 8 8 7 8 9 9 10 10 11 12 12 12 12 12
8 9 8 8 8 9 9 7 6 5 4 7 9 7 4 4 3 5 3 7 7 7 7 8 9 9 10 10 11 11 10 11 11
11 9 9 12 11 11 11 9 7 8 9 4 8 3 7 5 5 4 3 8 7 7 7 7 8 8 9 9 9 9 10 10 10
13 11 10 13 13 13 10 9 9 8 9 7 7 10 9 6 7 8 7 9 9 8 8 8 8 8 8 8 8 8 9 9 9
14 16 13 13 18 14 18 15 10 13 11 11 10 10 10 11 9 8 8 11 10 9 10 9 9 8 8 8 7 8 8 9 8
17 18 18 16 18 17 14 18 15 14 14 13 13 11 11 12 11 11 12 14 12 10 10 10 9 9 8 8 7 7 7 7 7
19 20 20 20 19 18 17 16 17 16 16 16 15 14 14 14 14 11 13 15 15 13 13 12 11 10 9 9 8 7 6 5 5
21 22 22 21 22 22 19 18 17 19 18 17 17 17 16 15 15 16 15 16 15 18 16 14 14 13 12 10 9 8 6 5 4
26 25 24 24 22 24 25 21 22 20 18 19 18 20 18 18 17 18 17 16 16 17 20 19 18 16 14 13 12 10 8 5 3
27 28 27 26 26 25 27 25 23 23 22 20 20 21 19 19 20 21 21 20 18 19 19 21 21 22 17 16 14 12 10 7 4
29 31 31 29 30 32 28 30 25 25 23 21 18 16 20 20 22 24 24 25 26 23 22 22 22 24 20 18 16 14 10 8 6
28 31 33 34 31 30 31 33 30 28 29 20 13 2 9 22 26 25 26 27 27 27 26 23 22 24 23 22 20 17 14 11 8
20 22 28 29 28 31 32 33 33 28 31 32 13 3 5 6 20 32 30 28 29 30 30 27 22 22 21 21 23 20 17 12 8
23 31 23 28 29 32 30 33 36 27 26 34 36 20 5 4 2 13 31 30 28 30 29 29 27 26 22 21 20 19 18 16 11
23 23 23 34 29 33 34 32 28 38 26 30 28 30 21 14 3 3 8 25 30 26 29 29 29 28 28 25 22 20 16 12 11
Wind_Direction
110 111 114 125 130 122 110 102 103 101 96 95 97 100 88 71 74 83 74 93 73 84 95 83 77 69 80 68 61 118 80 68 72
121 115 119 127 126 119 106 105 109 110 107 100 104 107 84 94 85 87 82 81 77 79 80 81 71 69 69 66 67 76 82 75 86
142 134 129 128 127 119 112 114 117 119 116 107 103 119 95 89 93 89 89 84 83 82 77 79 78 74 70 71 79 86 87 84 85
156 153 150 147 139 131 126 125 127 128 124 120 117 126 88 97 94 103 107 93 87 87 84 82 81 81 79 78 77 79 77 76 80
176 170 172 168 157 146 140 141 139 138 134 131 138 135 92 94 131 139 119 105 100 95 94 92 88 87 89 86 83 80 79 78 76
173 171 186 176 171 158 157 159 155 155 157 143 140 145 111 145 153 143 135 114 116 111 105 101 100 97 93 90 88 85 82 81 77
168 183 189 174 161 164 178 183 177 165 141 163 154 144 114 148 187 162 163 129 132 131 122 114 109 106 103 100 95 92 88 82 81
187 200 192 179 178 186 201 206 198 170 193 175 163 171 173 186 211 198 191 142 143 144 137 129 119 113 110 104 100 97 91 87 79
192 211 206 191 199 195 214 215 212 188 207 201 209 208 193 186 206 214 220 175 160 158 154 144 132 127 119 114 106 98 95 92 85
204 207 208 203 207 207 211 216 203 203 215 210 212 206 201 199 215 213 211 203 180 170 168 163 152 147 136 129 118 107 99 95 90
209 210 212 210 215 209 212 208 205 211 213 218 215 217 210 204 204 215 205 206 206 185 179 177 169 162 152 145 135 122 109 103 97
217 216 218 217 217 220 220 216 215 216 214 216 216 216 212 210 204 222 205 207 207 204 191 187 182 179 172 166 162 150 137 121 104
221 221 222 223 219 220 223 222 217 212 215 212 217 218 214 214 210 207 219 211 215 209 202 197 191 187 187 182 178 171 160 153 144
224 226 226 223 224 220 218 221 220 217 215 215 221 220 218 216 211 212 212 219 220 214 215 210 201 194 192 191 188 185 179 182 169
223 225 229 226 225 225 219 213 221 220 217 220 222 220 218 223 217 216 215 214 215 221 222 217 213 208 198 193 193 192 193 195 197
226 224 224 226 226 228 225 218 219 218 213 210 218 209 219 222 224 222 218 218 218 216 222 220 220 216 214 201 197 198 202 204 227
238 231 228 226 228 230 228 222 213 222 209 193 173 225 234 230 228 224 222 223 222 220 222 224 225 221 223 216 209 213 216 222 226
243 244 239 235 232 237 230 227 213 210 207 206 178 185 219 186 222 225 222 222 223 225 220 223 220 222 225 224 224 225 222 216 204
261 252 242 243 238 239 241 236 227 217 203 208 214 225 176 183 203 220 221 221 222 226 223 219 219 217 219 222 225 227 224 220 206
259 258 257 250 250 249 243 242 237 221 217 207 214 226 239 234 149 198 214 220 223 226 224 220 219 216 218 221 226 230 215 207 205